Location: Banios
(43.0451°N, 0.2335°E)
Time: 13:54:46
(UTC+00:00)

Nadezhda 4 Rocket - Pass Details

Date: 25 January 2021
Orbit: 949 x 993 km, 82.9° (Epoch: 25 February)

Event Time Altitude Azimuth Distance (km) Brightness Sun altitude
Rises 05:38:21 0° 347° (NNW) 3,634 6.8 -18.7°
Reaches altitude 10° 05:40:54 10° 342° (NNW) 2,683 6.0 -18.2°
Maximum altitude 05:46:47 51° 269° (W) 1,186 4.0 -17.2°
Drops below altitude 10° 05:52:37 10° 195° (SSW) 2,668 6.3 -16.1°
Sets 05:55:10 0° 191° (S) 3,613 7.0 -15.7°
